Location: Unspecified
(0.0000°N, 0.0000°E)
Time: 09:41:31
(UTC+00:00)

STRAND 1 - Visible Passes

Search period start: 13 May 2021 00:00
Search period end: 23 May 2021 00:00
Orbit: 767 x 781 km, 98.4° (Epoch: 12 May)

Date Brightness Start Highest point End Pass type
(mag) Time Alt. Az. Time Alt. Az. Time Alt. Az.
13 May ? 18:54:30 10° NNE 18:59:38 89° E 19:04:49 10° SSW visible
14 May ? 18:21:05 10° NE 18:25:41 33° ESE 18:30:17 10° SSE visible
14 May ? 20:01:52 10° NW 20:04:34 14° WNW 20:07:18 10° WSW visible
15 May ? 19:25:54 10° N 19:30:37 37° WNW 19:35:22 10° SW visible
16 May ? 18:51:30 10° NNE 18:56:38 82° ESE 19:01:48 10° S visible
17 May ? 18:18:11 10° NE 18:22:41 31° ESE 18:27:11 10° SSE visible
17 May ? 19:58:33 10° NW 20:01:34 16° WNW 20:04:36 10° WSW visible
18 May ? 19:22:48 10° N 19:27:36 41° WNW 19:32:26 10° SSW visible
19 May ? 18:48:30 10° NNE 18:53:38 76° ESE 18:58:48 10° S visible
20 May ? 18:15:17 10° NE 18:19:40 29° ESE 18:24:04 10° SSE visible
20 May ? 19:55:17 10° NW 19:58:34 17° WNW 20:01:52 10° WSW visible
21 May ? 19:19:44 10° N 19:24:36 44° WNW 19:29:30 10° SSW visible
22 May ? 18:45:31 10° NNE 18:50:38 70° ESE 18:55:46 10° S visible
